Jonesboro, AR

2:40 AM CST on January 24, 2017 (GMT -0600)
Jonesboro Municipal

Weather History for KJBR - October, 2014

Change the Weather History Date:

Sunday, October 19, 2014

  Actual Average Record
Temperature  
Mean Temperature 56 °F 60 °F  
Max Temperature 66 °F 72 °F 91 °F (2005)
Min Temperature 45 °F 49 °F 31 °F (1948)
Degree Days  
Heating Degree Days 9 6  
Month to date heating degree days 59 77  
Since 1 July heating degree days 68 95  
Cooling Degree Days 0 1  
Month to date cooling degree days 59 41  
Year to date cooling degree days 1779 1812  
Growing Degree Days 5 (Base 50)    
Moisture  
Dew Point 46 °F    
Average Humidity 74    
Maximum Humidity 100    
Minimum Humidity 48    
Precipitation  
Precipitation 0.00 in 0.17 in 0.79 in (2002)
Month to date precipitation 3.57 2.58  
Year to date precipitation 39.09 36.75  
Snow  
Snow 0.00 in 0.00 in T in (1989)
Month to date snowfall 0.0 0.0  
Since 1 July snowfall 0.0 0.0  
Since 1 September snowfall 0.0 0.0  
Snow Depth 0.00 in    
Sea Level Pressure  
Sea Level Pressure 30.17 in    
Wind  
Wind Speed 3 mph (ENE)    
Max Wind Speed 9 mph    
Max Gust Speed 14 mph    
Visibility 10 miles    
Events      
T = Trace of Precipitation, MM = Missing Value Source: NWS Daily Summary

Daily Weather History Graph

Daily Weather History Graph

Search for Another Location

Airport or City:

Trip Planner

Search our weather history database for the weather conditions in past years. The results will help you decide how hot, cold, wet, or windy it might be!

Date:

Astronomy

Oct. 19, 2014 Rise Set
Actual Time 7:12 AM CDT 6:21 PM CDT
Civil Twilight 6:46 AM CDT 6:47 PM CDT
Nautical Twilight 6:17 AM CDT 7:17 PM CDT
Astronomical Twilight 5:47 AM CDT 7:46 PM CDT
Moon 3:13 AM CDT (10/19) 4:06 PM CDT (10/19)
Length of Visible Light 12h 00m
Length of Day
11h 08m
Waning Crescent, 16% of the Moon is Illuminated
Oct 19
Waning Crescent
Oct 23
New
Oct 30
First Quarter
Nov 6
Full
Nov 14
Last Quarter

Hourly Weather History & Observations

Time (CDT) Temp. Dew Point Humidity Pressure Visibility Wind Dir Wind Speed Gust Speed Precip Events Conditions
12:53 AM 48.9 °F 46.0 °F 90% 30.19 in 10.0 mi NE 4.6 mph - N/A   Clear
1:53 AM 50.0 °F 45.0 °F 83% 30.18 in 10.0 mi NE 6.9 mph - N/A   Clear
2:53 AM 50.0 °F 45.0 °F 83% 30.19 in 10.0 mi NNE 4.6 mph - N/A   Clear
3:53 AM 48.0 °F 44.1 °F 86% 30.19 in 10.0 mi NE 4.6 mph - N/A   Clear
4:53 AM 46.9 °F 44.1 °F 90% 30.20 in 10.0 mi NE 4.6 mph - N/A   Clear
5:53 AM 46.9 °F 44.1 °F 90% 30.22 in 10.0 mi NE 5.8 mph - N/A   Clear
6:53 AM 46.0 °F 44.1 °F 93% 30.23 in 10.0 mi Calm Calm - N/A   Clear
7:53 AM 46.9 °F 45.0 °F 93% 30.25 in 10.0 mi NE 3.5 mph - N/A   Clear
8:53 AM 51.1 °F 46.9 °F 86% 30.26 in 10.0 mi ENE 5.8 mph - N/A   Clear
9:53 AM 55.0 °F 46.0 °F 72% 30.26 in 10.0 mi ESE 6.9 mph - N/A   Clear
10:53 AM 57.0 °F 45.0 °F 64% 30.25 in 10.0 mi ESE 5.8 mph - N/A   Clear
11:53 AM 59.0 °F 44.1 °F 58% 30.24 in 10.0 mi Calm Calm - N/A   Clear
12:53 PM 63.0 °F 45.0 °F 52% 30.22 in 10.0 mi North 5.8 mph - N/A   Clear
1:53 PM 63.0 °F 45.0 °F 52% 30.19 in 10.0 mi SE 5.8 mph - N/A   Clear
2:53 PM 64.0 °F 46.0 °F 52% 30.15 in 10.0 mi Variable 3.5 mph - N/A   Clear
3:53 PM 64.9 °F 46.0 °F 50% 30.13 in 10.0 mi Calm Calm - N/A   Clear
4:53 PM 64.0 °F 45.0 °F 50% 30.12 in 10.0 mi Calm Calm - N/A   Clear
5:53 PM 61.0 °F 46.9 °F 60% 30.10 in 10.0 mi SE 4.6 mph - N/A   Clear
6:53 PM 55.9 °F 50.0 °F 80% 30.11 in 10.0 mi Calm Calm - N/A   Clear
7:53 PM 54.0 °F 51.1 °F 90% 30.12 in 10.0 mi Calm Calm - N/A   Clear
8:53 PM 54.0 °F 50.0 °F 86% 30.11 in 10.0 mi Calm Calm - N/A   Clear
9:53 PM 52.0 °F 48.9 °F 89% 30.09 in 10.0 mi Calm Calm - N/A   Clear
10:53 PM 50.0 °F 48.9 °F 96% 30.10 in 10.0 mi Calm Calm - N/A   Clear
11:53 PM 48.9 °F 48.0 °F 97% 30.09 in 10.0 mi Calm Calm - N/A   Clear